When you browse on this site, cookies collect data to enhance your experience and personalize the content and advertising you see.
Visit our Privacy Policy to learn more. By continuing to use the site, you agree to this use of cookies and data.

Hourly Weather Luanda

Today, 12 August, Wednesday

Time Temperature Precipitation Wind Pressure Humidity
00:00 +22°C° 0 mm 4 mps 756 mmHg 83%
01:00 +22°C° 0 mm 3 mps 756 mmHg 80%
02:00 +22°C° 0 mm 3 mps 756 mmHg 79%
03:00 +23°C° 0 mm 2 mps 755 mmHg 79%
04:00 +23°C° 0 mm 2 mps 755 mmHg 78%
05:00 +23°C° 0 mm 2 mps 755 mmHg 77%
06:00 +24°C° 0 mm 2 mps 756 mmHg 77%
07:00 +24°C° 0 mm 1 mps 756 mmHg 78%
08:00 +24°C° 0 mm 1 mps 756 mmHg 74%
09:00 +25°C° 0 mm 1 mps 756 mmHg 70%
10:00 +26°C° 0 mm 1 mps 757 mmHg 66%
11:00 +27°C° 0 mm 2 mps 756 mmHg 61%
12:00 +29°C° 0 mm 3 mps 755 mmHg 56%
13:00 +32°C° 0 mm 4 mps 754 mmHg 50%
14:00 +30°C° 0 mm 4 mps 754 mmHg 53%
15:00 +29°C° 0 mm 4 mps 753 mmHg 56%
16:00 +28°C° 0 mm 5 mps 753 mmHg 59%
17:00 +27°C° 0 mm 5 mps 753 mmHg 67%
18:00 +25°C° 0 mm 5 mps 754 mmHg 75%
19:00 +22°C° 0 mm 5 mps 754 mmHg 83%
20:00 +22°C° 0 mm 4 mps 755 mmHg 85%
21:00 +22°C° 0 mm 3 mps 755 mmHg 87%
22:00 +21°C° 0 mm 3 mps 756 mmHg 89%
23:00 +21°C° 0 mm 2 mps 756 mmHg 86%

Tomorrow, 13 August, Thursday

Time Temperature Precipitation Wind Pressure Humidity
00:00 +23°C° 0 mm 2 mps 756 mmHg 83%
01:00 +23°C° 0 mm 1 mps 756 mmHg 80%
02:00 +23°C° 0 mm 1 mps 755 mmHg 78%
03:00 +24°C° 0 mm 1 mps 755 mmHg 76%
04:00 +24°C° 0 mm 1 mps 755 mmHg 73%
05:00 +24°C° 0 mm 1 mps 755 mmHg 74%
06:00 +23°C° 0 mm 1 mps 755 mmHg 75%
07:00 +23°C° 0 mm 1 mps 755 mmHg 75%
08:00 +25°C° 0 mm 1 mps 755 mmHg 67%
09:00 +27°C° 0 mm 2 mps 755 mmHg 58%
10:00 +29°C° 0 mm 2 mps 756 mmHg 50%
11:00 +30°C° 0 mm 3 mps 755 mmHg 48%
12:00 +30°C° 0 mm 4 mps 754 mmHg 46%
13:00 +32°C° 0 mm 5 mps 753 mmHg 44%
14:00 +30°C° 0 mm 5 mps 753 mmHg 49%
15:00 +29°C° 0 mm 5 mps 752 mmHg 53%
16:00 +28°C° 0 mm 6 mps 752 mmHg 58%
17:00 +26°C° 0 mm 5 mps 752 mmHg 67%
18:00 +25°C° 0 mm 5 mps 753 mmHg 75%
19:00 +22°C° 0 mm 5 mps 753 mmHg 84%
20:00 +22°C° 0 mm 4 mps 754 mmHg 85%
21:00 +22°C° 0 mm 4 mps 754 mmHg 85%
22:00 +22°C° 0 mm 3 mps 755 mmHg 86%
23:00 +23°C° 0 mm 2 mps 755 mmHg 83%

Day after tomorrow, 14 August, Friday

Time Temperature Precipitation Wind Pressure Humidity
00:00 +23°C° 0 mm 2 mps 755 mmHg 80%
01:00 +24°C° 0 mm 1 mps 755 mmHg 77%
02:00 +24°C° 0 mm 1 mps 755 mmHg 76%
03:00 +24°C° 0 mm 1 mps 754 mmHg 75%
04:00 +24°C° 0 mm 1 mps 754 mmHg 74%
05:00 +24°C° 0 mm 1 mps 754 mmHg 73%
06:00 +24°C° 0 mm 1 mps 754 mmHg 72%
07:00 +22°C° 0 mm 0 mps 754 mmHg 71%
08:00 +25°C° 0 mm 1 mps 755 mmHg 64%
09:00 +27°C° 0 mm 1 mps 755 mmHg 57%
10:00 +29°C° 0 mm 2 mps 755 mmHg 50%
11:00 +29°C° 0 mm 3 mps 754 mmHg 49%
12:00 +30°C° 0 mm 4 mps 753 mmHg 48%
13:00 +30°C° 0 mm 5 mps 752 mmHg 48%
14:00 +29°C° 0 mm 6 mps 751 mmHg 51%
15:00 +28°C° 0 mm 6 mps 751 mmHg 55%
16:00 +27°C° 0 mm 6 mps 750 mmHg 59%
17:00 +26°C° 0 mm 6 mps 751 mmHg 66%
18:00 +23°C° 0 mm 6 mps 751 mmHg 72%
19:00 +22°C° 0 mm 5 mps 752 mmHg 79%
20:00 +22°C° 0 mm 4 mps 753 mmHg 80%
21:00 +22°C° 0 mm 4 mps 753 mmHg 80%
22:00 +22°C° 0 mm 3 mps 754 mmHg 80%
23:00 +22°C° 0 mm 3 mps 754 mmHg 78%

15 August, Saturday

Time Temperature Precipitation Wind Pressure Humidity
00:00 +23°C° 0 mm 2 mps 754 mmHg 75%
01:00 +23°C° 0 mm 2 mps 754 mmHg 73%
02:00 +23°C° 0 mm 2 mps 754 mmHg 73%
03:00 +23°C° 0 mm 1 mps 754 mmHg 72%
04:00 +23°C° 0 mm 1 mps 753 mmHg 72%
05:00 +23°C° 0 mm 1 mps 754 mmHg 71%
06:00 +23°C° 0 mm 1 mps 754 mmHg 70%
07:00 +23°C° 0 mm 1 mps 754 mmHg 69%
08:00 +25°C° 0 mm 1 mps 754 mmHg 62%
09:00 +26°C° 0 mm 2 mps 754 mmHg 55%
10:00 +28°C° 0 mm 2 mps 754 mmHg 49%
11:00 +28°C° 0 mm 3 mps 753 mmHg 48%
12:00 +29°C° 0 mm 4 mps 753 mmHg 47%
13:00 +29°C° 0 mm 5 mps 752 mmHg 46%
14:00 +28°C° 0 mm 5 mps 751 mmHg 50%
15:00 +27°C° 0 mm 5 mps 751 mmHg 53%
16:00 +27°C° 0 mm 6 mps 750 mmHg 56%
17:00 +25°C° 0 mm 5 mps 751 mmHg 64%
18:00 +23°C° 0 mm 5 mps 752 mmHg 72%
19:00 +22°C° 0 mm 4 mps 752 mmHg 79%
20:00 +21°C° 0 mm 4 mps 753 mmHg 81%
21:00 +21°C° 0 mm 3 mps 753 mmHg 82%
22:00 +21°C° 0 mm 3 mps 754 mmHg 84%
23:00 +21°C° 0 mm 2 mps 754 mmHg 82%

16 August, Sunday

Time Temperature Precipitation Wind Pressure Humidity
00:00 +21°C° 0 mm 2 mps 754 mmHg 80%
01:00 +22°C° 0 mm 1 mps 754 mmHg 78%
02:00 +23°C° 0 mm 1 mps 753 mmHg 76%
03:00 +23°C° 0 mm 1 mps 753 mmHg 73%
04:00 +21°C° 0 mm 0 mps 753 mmHg 71%
05:00 +21°C° 0 mm 0 mps 753 mmHg 70%
06:00 +21°C° 0 mm 0 mps 753 mmHg 69%
07:00 +21°C° 0 mm 0 mps 753 mmHg 68%
08:00 +25°C° 0 mm 1 mps 754 mmHg 62%
09:00 +26°C° 0 mm 1 mps 754 mmHg 55%
10:00 +28°C° 0 mm 2 mps 754 mmHg 49%
11:00 +28°C° 0 mm 3 mps 753 mmHg 48%
12:00 +29°C° 0 mm 4 mps 752 mmHg 47%
13:00 +29°C° 0 mm 5 mps 752 mmHg 46%
14:00 +28°C° 0 mm 6 mps 751 mmHg 51%
15:00 +27°C° 0 mm 6 mps 751 mmHg 56%
16:00 +26°C° 0 mm 6 mps 750 mmHg 61%
17:00 +24°C° 0 mm 6 mps 751 mmHg 67%
18:00 +23°C° 0 mm 6 mps 752 mmHg 73%
19:00 +22°C° 0 mm 5 mps 752 mmHg 78%
20:00 +21°C° 0 mm 4 mps 753 mmHg 80%
21:00 +21°C° 0 mm 3 mps 753 mmHg 82%
22:00 +21°C° 0 mm 3 mps 754 mmHg 84%
23:00 +21°C° 0 mm 2 mps 754 mmHg 82%

17 August, Monday

Time Temperature Precipitation Wind Pressure Humidity
00:00 +22°C° 0 mm 1 mps 754 mmHg 79%
01:00 +23°C° 0 mm 1 mps 754 mmHg 77%
02:00 +23°C° 0 mm 1 mps 754 mmHg 76%
03:00 +23°C° 0 mm 1 mps 754 mmHg 75%
04:00 +23°C° 0 mm 2 mps 754 mmHg 75%
05:00 +23°C° 0 mm 1 mps 754 mmHg 74%
06:00 +23°C° 0 mm 1 mps 754 mmHg 74%
07:00 +23°C° 0 mm 1 mps 754 mmHg 73%
08:00 +24°C° 0 mm 1 mps 755 mmHg 69%
09:00 +24°C° 0 mm 2 mps 755 mmHg 64%
10:00 +25°C° 0 mm 2 mps 755 mmHg 59%
11:00 +26°C° 0 mm 2 mps 755 mmHg 57%
12:00 +27°C° 0 mm 3 mps 754 mmHg 55%
13:00 +27°C° 0 mm 3 mps 753 mmHg 52%
14:00 +27°C° 0 mm 3 mps 753 mmHg 54%
15:00 +27°C° 0 mm 4 mps 753 mmHg 55%
16:00 +26°C° 0 mm 4 mps 752 mmHg 56%
17:00 +25°C° 0 mm 4 mps 753 mmHg 62%
18:00 +23°C° 0 mm 4 mps 753 mmHg 69%
19:00 +21°C° 0 mm 3 mps 753 mmHg 75%
20:00 +21°C° 0 mm 3 mps 754 mmHg 79%
21:00 +20°C° 0 mm 3 mps 754 mmHg 82%
22:00 +20°C° 0 mm 2 mps 755 mmHg 86%
23:00 +20°C° 0 mm 2 mps 755 mmHg 88%
Show more